Preview of NWS' New Version of Forecast
This preview is not operational and should not be used for support decisions.

Regional Weather Roundup (RWR)

Issued by National Weather Service (NWS)

                            
000
ASCA42 TJSJ 220610
RWRPR 
PUERTO RICO/U.S. VIRGIN ISLANDS HOURLY WEATHER ROUNDUP
NATIONAL WEATHER SERVICE SAN JUAN PR
200 AM AST MON APR 22 2019

PRZ001>002-007>008-010-220700-
PUERTO RICO
  
CITY           SKY/WX    TMP DP  RH WIND       PRES   REMARKS
SAN JUAN LMM   PTCLDY    75  70  83 SE7       30.01F                  
CEIBA          PTCLDY    79  70  73 MISG      30.02F                  
$$

VIZ001>002-220700-
U.S. VIRGIN ISLANDS
  
CITY           SKY/WX    TMP DP  RH WIND       PRES   REMARKS
CHARLOTTE AMA  CLEAR     77  68  73 E7        29.99F                  
CHRISTIANSTED  MOCLDY    75  68  78 NE8       30.00F                  
$$

HOURLY WEATHER ROUNDUP FOR THE NEWS MEDIA
  
CITY           SKY/WX    TMP DP  RH WIND       PRES   REMARKS
ORLANDO        FAIR      62  47  57 CALM      30.17F                  
NEW YORK       MOCLDY    52  49  89 E5        30.09F                  
NEWARK         MOCLDY    56  48  74 NE3       30.07F                  
CHICAGO        MOCLDY    61  38  42 S9        30.04S                  
HARTFORD       FOG       49  49 100 CALM      30.09F VSB 1/4          
BOSTON         CLOUDY    54  51  90 S5        30.11F                  
DALLAS         PTCLDY    70  56  61 S14G23    29.97S                  
PHILADELPHIA   FAIR      58  49  72 CALM      30.06F                  
LOS ANGELES    MOCLDY    58  53  84 W3        30.02R                  
WASHINGTON DC  CLOUDY    56  41  57 NW10      30.11F